User: anonymous   Login
Location: Charleston
(38.3500°N, 81.6330°W)
Time: 01:35:57
(UTC-04:00)
Language:

Cosmos 1812 Rocket - Orbit

View from above orbital plane
View from above orbital plane
View from above satellite
View from above satellite

Ground track
Ground track

The orbit data is extracted from the following two-line orbital elements,

1 17296U 87003B   14303.27496181  .00000615  00000-0  72989-4 0  7878
2 17296 082.5322 203.2541 0020475 144.7357 351.6297 14.82734218500700
Epoch (UTC): 30 October 2014 06:35:56
Eccentricity: 0.0020475
inclination: 82.5322°
perigee height: 606 km
apogee height: 635 km
right ascension of ascending node: 203.2541°
argument of perigee: 144.7357°
revolutions per day: 14.82734218
mean anomaly at epoch: 351.6297°
orbit number at epoch: 50070

The dashed part of the orbit path shows where the satellite is in the earth's shadow,  

DLR